Zurück zum Katalog

STARLINK-33658

AktivKommunikationVLEO
NORAD 63384·PAYLOAD·🇺🇸 United States

Gestartet Mar 26, 2025 von Vandenberg Space Force Base

Loading…

Nächste Überflüge (nächste 24 Stunden)

TLE

AktuellSource: CelesTrak SupGP

Epoche: Sep 15, 2026, 02:52 UTC

1 63384C 25063X   26258.11993056 -.00039707  00000+0 -11729-2 0  2584
2 63384  53.1575 246.9665 0001390  86.9302 180.5202 15.34415893    13

Verfolge STARLINK-33658 in Echtzeit mit AllMySat

Download on the App Store